Location: Gleizolles
(44.4833°N, 6.7667°E)
Time: 10:34:01
(UTC+00:00)

Altair - Pass Details

Date: 02 July 2024
Orbit: 1501 x 1682 km, 47.2° (Epoch: 18 May)

Event Time Altitude Azimuth Distance (km) Brightness Sun altitude
Rises 22:37:45 0° 235° (SW) 4,634 9.8 -21.2°
Reaches altitude 10° 22:40:47 10° 233° (SW) 3,648 9.2 -21.4°
Maximum altitude 22:49:52 72° 152° (SSE) 1,570 7.3 -21.7°
Drops below altitude 10° 22:59:05 10° 70° (ENE) 3,701 9.6 -22.0°
Sets 23:02:10 0° 69° (ENE) 4,705 10.2 -22.1°
